When you browse on this site, cookies collect data to enhance your experience and personalize the content and advertising you see.
Visit our Privacy Policy to learn more. By continuing to use the site, you agree to this use of cookies and data.
  • In Deutschland
  • Länderverzeichnis
  • Für 7 Tage
  • Wassertemperatur
  • Wetterkarte
  • Widgets
  • user-avatar
    Anmelden

    Stündliche Wetter Quito

    Heute, 12 Dezember, Donnerstag

    Zeit Temperatur Niederschläge Wind Luftdruck Luftfeuchtigkeit
    00:00 +18°C° 0 mm 1 m/S 622 mmHg 73%
    01:00 +17°C° 0 mm 2 m/S 622 mmHg 88%
    02:00 +17°C° 0 mm 2 m/S 621 mmHg 86%
    03:00 +16°C° 0 mm 2 m/S 621 mmHg 84%
    04:00 +16°C° 0 mm 2 m/S 621 mmHg 83%
    05:00 +16°C° 0 mm 2 m/S 621 mmHg 80%
    06:00 +17°C° 0 mm 2 m/S 622 mmHg 77%
    07:00 +18°C° 0 mm 2 m/S 623 mmHg 74%
    08:00 +20°C° 0 mm 2 m/S 623 mmHg 67%
    09:00 +23°C° 0 mm 2 m/S 624 mmHg 60%
    10:00 +25°C° 0 mm 2 m/S 624 mmHg 53%
    11:00 +26°C° 0 mm 2 m/S 624 mmHg 50%
    12:00 +27°C° 0 mm 2 m/S 623 mmHg 47%
    13:00 +28°C° 0 mm 3 m/S 623 mmHg 44%
    14:00 +28°C° 0 mm 2 m/S 623 mmHg 46%
    15:00 +27°C° 0 mm 2 m/S 622 mmHg 49%
    16:00 +27°C° 0 mm 2 m/S 622 mmHg 51%
    17:00 +25°C° 0 mm 1 m/S 622 mmHg 58%
    18:00 +22°C° 0 mm 1 m/S 622 mmHg 64%
    19:00 +20°C° 0 mm 1 m/S 622 mmHg 71%
    20:00 +20°C° 0.1 mm 1 m/S 622 mmHg 73%
    21:00 +19°C° 0.1 mm 1 m/S 622 mmHg 75%
    22:00 +17°C° 0.1 mm 0 m/S 622 mmHg 77%
    23:00 +17°C° 0 mm 0 m/S 622 mmHg 75%

    Morgen, 13 Dezember, Freitag

    Zeit Temperatur Niederschläge Wind Luftdruck Luftfeuchtigkeit
    00:00 +17°C° 0 mm 0 m/S 622 mmHg 73%
    01:00 +19°C° 0 mm 1 m/S 622 mmHg 71%
    02:00 +18°C° 0 mm 1 m/S 622 mmHg 74%
    03:00 +18°C° 0 mm 1 m/S 621 mmHg 77%
    04:00 +16°C° 0 mm 1 m/S 621 mmHg 81%
    05:00 +18°C° 0 mm 1 m/S 622 mmHg 80%
    06:00 +19°C° 0 mm 1 m/S 622 mmHg 79%
    07:00 +20°C° 0 mm 1 m/S 623 mmHg 78%
    08:00 +22°C° 0 mm 1 m/S 624 mmHg 70%
    09:00 +24°C° 0 mm 1 m/S 624 mmHg 63%
    10:00 +26°C° 0 mm 2 m/S 624 mmHg 55%
    11:00 +27°C° 0 mm 2 m/S 624 mmHg 51%
    12:00 +27°C° 0 mm 2 m/S 624 mmHg 47%
    13:00 +28°C° 0 mm 2 m/S 623 mmHg 44%
    14:00 +28°C° 0 mm 2 m/S 623 mmHg 46%
    15:00 +27°C° 0 mm 2 m/S 622 mmHg 49%
    16:00 +27°C° 0 mm 2 m/S 622 mmHg 52%
    17:00 +25°C° 0 mm 1 m/S 621 mmHg 57%
    18:00 +23°C° 0 mm 1 m/S 621 mmHg 63%
    19:00 +21°C° 0 mm 1 m/S 621 mmHg 68%
    20:00 +20°C° 0 mm 1 m/S 621 mmHg 70%
    21:00 +20°C° 0 mm 1 m/S 621 mmHg 72%
    22:00 +19°C° 0 mm 1 m/S 622 mmHg 73%
    23:00 +19°C° 0.2 mm 1 m/S 622 mmHg 75%

    übermorgen, 14 Dezember, Samstag

    Zeit Temperatur Niederschläge Wind Luftdruck Luftfeuchtigkeit
    00:00 +19°C° 0.2 mm 1 m/S 621 mmHg 77%
    01:00 +19°C° 0.2 mm 1 m/S 621 mmHg 79%
    02:00 +16°C° 0.1 mm 0 m/S 621 mmHg 82%
    03:00 +15°C° 0.1 mm 0 m/S 621 mmHg 85%
    04:00 +15°C° 0.1 mm 0 m/S 621 mmHg 88%
    05:00 +16°C° 0 mm 0 m/S 621 mmHg 88%
    06:00 +19°C° 0 mm 1 m/S 622 mmHg 87%
    07:00 +20°C° 0 mm 1 m/S 623 mmHg 86%
    08:00 +21°C° 0.6 mm 1 m/S 623 mmHg 79%
    09:00 +23°C° 0.6 mm 1 m/S 624 mmHg 72%
    10:00 +25°C° 0.6 mm 2 m/S 624 mmHg 64%
    11:00 +25°C° 0.3 mm 2 m/S 624 mmHg 61%
    12:00 +26°C° 0.3 mm 3 m/S 623 mmHg 58%
    13:00 +27°C° 0.3 mm 3 m/S 623 mmHg 54%
    14:00 +26°C° 0.4 mm 3 m/S 623 mmHg 60%
    15:00 +25°C° 0.4 mm 3 m/S 622 mmHg 65%
    16:00 +24°C° 0.4 mm 2 m/S 621 mmHg 71%
    17:00 +21°C° 0.4 mm 2 m/S 622 mmHg 77%
    18:00 +20°C° 0.4 mm 2 m/S 622 mmHg 83%
    19:00 +19°C° 0.4 mm 1 m/S 622 mmHg 89%
    20:00 +19°C° 0.1 mm 1 m/S 622 mmHg 90%
    21:00 +18°C° 0.1 mm 1 m/S 622 mmHg 91%
    22:00 +18°C° 0.1 mm 1 m/S 622 mmHg 92%
    23:00 +18°C° 0 mm 1 m/S 622 mmHg 92%

    15 Dezember, Sonntag

    Zeit Temperatur Niederschläge Wind Luftdruck Luftfeuchtigkeit
    00:00 +18°C° 0 mm 1 m/S 622 mmHg 93%
    01:00 +18°C° 0 mm 1 m/S 621 mmHg 93%
    02:00 +16°C° 0 mm 1 m/S 621 mmHg 94%
    03:00 +16°C° 0 mm 1 m/S 621 mmHg 95%
    04:00 +16°C° 0 mm 1 m/S 621 mmHg 96%
    05:00 +17°C° 0 mm 2 m/S 621 mmHg 92%
    06:00 +18°C° 0 mm 2 m/S 622 mmHg 88%
    07:00 +18°C° 0 mm 2 m/S 622 mmHg 84%
    08:00 +20°C° 0 mm 3 m/S 623 mmHg 77%
    09:00 +21°C° 0 mm 3 m/S 623 mmHg 70%
    10:00 +22°C° 0 mm 4 m/S 624 mmHg 63%
    11:00 +23°C° 0.1 mm 4 m/S 623 mmHg 63%
    12:00 +24°C° 0.1 mm 3 m/S 623 mmHg 62%
    13:00 +25°C° 0.1 mm 3 m/S 622 mmHg 62%
    14:00 +24°C° 0.8 mm 3 m/S 622 mmHg 67%
    15:00 +24°C° 0.8 mm 2 m/S 621 mmHg 71%
    16:00 +23°C° 0.8 mm 2 m/S 620 mmHg 76%
    17:00 +22°C° 0.8 mm 1 m/S 620 mmHg 81%
    18:00 +21°C° 0.8 mm 1 m/S 620 mmHg 85%
    19:00 +19°C° 0.8 mm 1 m/S 620 mmHg 90%
    20:00 +19°C° 0.1 mm 1 m/S 621 mmHg 90%
    21:00 +19°C° 0.1 mm 1 m/S 621 mmHg 90%
    22:00 +18°C° 0.1 mm 1 m/S 622 mmHg 91%
    23:00 +18°C° 0.3 mm 1 m/S 621 mmHg 91%

    16 Dezember, Montag

    Zeit Temperatur Niederschläge Wind Luftdruck Luftfeuchtigkeit
    00:00 +18°C° 0.3 mm 1 m/S 621 mmHg 91%
    01:00 +18°C° 0.3 mm 1 m/S 621 mmHg 92%
    02:00 +18°C° 0.3 mm 1 m/S 621 mmHg 91%
    03:00 +18°C° 0.3 mm 1 m/S 621 mmHg 91%
    04:00 +18°C° 0.3 mm 1 m/S 621 mmHg 90%
    05:00 +19°C° 0 mm 1 m/S 621 mmHg 90%
    06:00 +19°C° 0 mm 1 m/S 621 mmHg 90%
    07:00 +18°C° 0 mm 2 m/S 622 mmHg 90%
    08:00 +19°C° 0.3 mm 2 m/S 622 mmHg 87%
    09:00 +21°C° 0.3 mm 2 m/S 622 mmHg 83%
    10:00 +23°C° 0.3 mm 2 m/S 622 mmHg 79%
    11:00 +25°C° 0.2 mm 1 m/S 622 mmHg 70%
    12:00 +26°C° 0.2 mm 1 m/S 622 mmHg 60%
    13:00 +28°C° 0.2 mm 1 m/S 622 mmHg 51%
    14:00 +27°C° 0.4 mm 1 m/S 621 mmHg 56%
    15:00 +27°C° 0.4 mm 1 m/S 621 mmHg 60%
    16:00 +26°C° 0.4 mm 1 m/S 620 mmHg 64%
    17:00 +24°C° 0.9 mm 1 m/S 620 mmHg 73%
    18:00 +21°C° 0.9 mm 1 m/S 620 mmHg 81%
    19:00 +19°C° 0.9 mm 1 m/S 619 mmHg 90%
    20:00 +18°C° 0.9 mm 2 m/S 620 mmHg 91%
    21:00 +17°C° 0.9 mm 2 m/S 620 mmHg 93%
    22:00 +17°C° 0.9 mm 2 m/S 620 mmHg 94%
    23:00 +17°C° 1 mm 2 m/S 620 mmHg 94%

    17 Dezember, Dienstag

    Zeit Temperatur Niederschläge Wind Luftdruck Luftfeuchtigkeit
    00:00 +17°C° 1 mm 2 m/S 620 mmHg 95%
    01:00 +17°C° 1 mm 2 m/S 619 mmHg 95%
    02:00 +17°C° 0.6 mm 2 m/S 619 mmHg 95%
    03:00 +17°C° 0.6 mm 2 m/S 619 mmHg 96%
    04:00 +17°C° 0.6 mm 2 m/S 619 mmHg 96%
    05:00 +17°C° 0.2 mm 2 m/S 620 mmHg 95%
    06:00 +18°C° 0.2 mm 2 m/S 620 mmHg 93%
    07:00 +18°C° 0.2 mm 3 m/S 621 mmHg 92%
    08:00 +20°C° 0.5 mm 3 m/S 621 mmHg 87%
    09:00 +21°C° 0.5 mm 3 m/S 622 mmHg 81%
    10:00 +24°C° 0.5 mm 3 m/S 622 mmHg 76%
    11:00 +24°C° 1.8 mm 3 m/S 621 mmHg 78%
    12:00 +24°C° 1.8 mm 3 m/S 621 mmHg 79%
    13:00 +24°C° 1.8 mm 3 m/S 620 mmHg 81%
    14:00 +24°C° 1.3 mm 3 m/S 620 mmHg 82%
    15:00 +22°C° 1.3 mm 3 m/S 619 mmHg 83%
    16:00 +22°C° 1.3 mm 3 m/S 619 mmHg 84%
    17:00 +21°C° 1.9 mm 2 m/S 619 mmHg 88%
    18:00 +20°C° 1.9 mm 2 m/S 619 mmHg 91%
    19:00 +19°C° 1.9 mm 1 m/S 619 mmHg 95%
    20:00 +19°C° 1.4 mm 1 m/S 620 mmHg 95%
    21:00 +18°C° 1.4 mm 2 m/S 620 mmHg 96%
    22:00 +18°C° 1.4 mm 2 m/S 620 mmHg 96%
    23:00 +18°C° 1.5 mm 2 m/S 620 mmHg 97%
    Mehr zeigen